Location: Palo Alto
(37.4420°N, 122.1420°W)
Time: 00:29:15
(UTC-08:00)

ISS - All Passes

Search period start: 23 January 2017 00:00
Search period end: 02 February 2017 00:00
Orbit: 399 x 410 km, 51.6° (Epoch: 23 January)

Date Brightness Start Highest point End Pass type
(mag) Time Alt. Az. Time Alt. Az. Time Alt. Az.
23 Jan - 02:34:05 10° NNW 02:36:09 16° NNE 02:38:13 10° ENE night (unlit)
23 Jan - 04:09:43 10° NW 04:12:58 76° SW 04:16:11 10° SE night (unlit)
23 Jan - 20:47:58 10° SW 20:51:13 80° NW 20:54:29 10° NE night (unlit)
23 Jan - 22:26:23 10° NW 22:28:09 14° NNW 22:29:54 10° N night (unlit)
24 Jan - 01:42:35 10° N 01:43:39 11° NNE 01:44:42 10° NE night (unlit)
24 Jan - 03:17:33 10° NW 03:20:44 51° NE 03:23:53 10° ESE night (unlit)
24 Jan - 04:55:12 10° W 04:56:52 13° SW 04:58:33 10° SSW night (unlit)
24 Jan - 19:55:53 10° SSW 19:59:02 47° SE 20:02:11 10° ENE visible
24 Jan - 21:33:10 10° WNW 21:35:40 20° NNW 21:38:10 10° NNE night (unlit)
25 Jan - 02:25:32 10° NNW 02:28:24 28° NNE 02:31:16 10° E night (unlit)
25 Jan - 04:02:01 10° WNW 04:04:49 27° SW 04:07:36 10° SSE night (unlit)
25 Jan - 19:04:17 10° S 19:06:55 23° SE 19:09:33 10° ENE visible
25 Jan - 20:40:17 10° W 20:43:15 32° NNW 20:46:15 10° NNE visible
26 Jan - 01:33:38 10° NNW 01:35:58 18° NNE 01:38:17 10° ENE night (unlit)
26 Jan - 03:09:29 10° WNW 03:12:40 57° SW 03:15:51 10° SE night (unlit)
26 Jan - 18:13:45 10° SSE 18:14:51 11° SE 18:15:56 10° ESE visible
26 Jan - 19:47:42 10° WSW 19:50:56 62° NW 19:54:09 10° NE visible
26 Jan - 21:26:32 10° NW 21:27:56 12° NNW 21:29:22 10° N night (unlit)
27 Jan - 00:41:56 10° N 00:43:26 13° NNE 00:44:56 10° NE night (unlit)
27 Jan - 02:17:12 10° NW 02:20:26 66° NE 02:23:38 10° ESE night (unlit)
27 Jan - 03:55:56 10° WSW 03:56:29 10° SW 03:57:01 10° SW night (unlit)
27 Jan - 18:55:26 10° SW 18:58:40 62° SE 19:01:54 10° NE visible
27 Jan - 20:33:07 10° WNW 20:35:24 17° NNW 20:37:41 10° NNE visible
28 Jan - 01:25:05 10° NW 01:28:05 34° NNE 01:31:05 10° E night (unlit)
28 Jan - 03:01:53 10° W 03:04:24 21° SW 03:06:55 10° S night (unlit)
28 Jan - 18:03:36 10° SSW 18:06:28 29° SE 18:09:21 10° ENE visible
28 Jan - 19:40:05 10° W 19:42:55 27° NNW 19:45:46 10° NNE visible
29 Jan - 00:33:06 10° NNW 00:35:39 21° NNE 00:38:11 10° E night (unlit)
29 Jan - 02:09:09 10° WNW 02:12:15 43° SW 02:15:20 10° SSE night (unlit)
29 Jan - 17:12:27 10° SSE 17:14:21 15° SE 17:16:14 10° E daylight
29 Jan - 18:47:21 10° WSW 18:50:31 48° NW 18:53:42 10° NE visible
29 Jan - 20:26:39 10° NW 20:27:38 11° NNW 20:28:36 10° N visible
29 Jan - 23:41:16 10° NNW 23:43:07 14° NNE 23:44:56 10° ENE night (unlit)
30 Jan - 01:16:45 10° NW 01:20:01 86° NE 01:23:15 10° SE night (unlit)
30 Jan - 17:54:55 10° SW 17:58:11 82° SE 18:01:27 10° NE visible
30 Jan - 19:33:00 10° WNW 19:35:02 15° NNW 19:37:03 10° NNE visible
30 Jan - 22:49:57 10° N 22:50:29 10° NNE 22:51:00 10° NNE night (unlit)
31 Jan - 00:24:33 10° NW 00:27:39 42° NE 00:30:45 10° ESE night (unlit)
31 Jan - 02:01:44 10° W 02:03:52 16° SW 02:06:00 10° S night (unlit)
31 Jan - 17:02:52 10° SSW 17:05:56 37° SE 17:08:59 10° ENE daylight
31 Jan - 18:39:48 10° W 18:42:29 23° NNW 18:45:10 10° NNE visible
31 Jan - 23:32:28 10° NNW 23:35:12 24° NNE 23:37:55 10° E night (unlit)
01 Feb - 01:08:45 10° WNW 01:11:43 33° SW 01:14:39 10° SSE night (unlit)
01 Feb - 16:11:23 10° S 16:13:44 18° SE 16:16:06 10° E daylight
01 Feb - 17:46:55 10° WSW 17:50:00 38° NW 17:53:06 10° NE daylight
01 Feb - 22:40:32 10° NNW 22:42:40 16° NNE 22:44:47 10° ENE night (unlit)
